Retour au catalogue

CZ-6A DEB

ActifPO
NORAD 60639·DEBRIS·🇨🇳 China

Lancé Aug 6, 2024 depuis Taiyuan Satellite Launch Center

Loading…

Prochains Passages (prochaines 24 heures)

TLE

FraisSource: Space-Track

Époque: Sep 14, 2026, 08:25 UTC

1 60639U 24140AQ  26257.35081220  .00000086  00000-0  79685-4 0  9991
2 60639  88.4768 234.7742 0454118 202.8002 155.2401 13.36055154102401

Suivez CZ-6A DEB en temps réel avec AllMySat

Download on the App Store